Lexington Weather

Lexington, Massachusetts, USA

39°F
1/28/2023 9:37pm 
  • Lexington Conditions: Clear
  • Temperature: 38.7°F / 3.7°CColder 0.1°F than last hour.
  • Dew Point: 27.5°FIncreased 0.9°Fsince last hour.
  • Relative Humidity: 64%Increased 3.0% since last hour.
  • Wind: Calm, 10-min avg: Calm, gust: None
  • Barometer: 30.25 in Steady
  • Visibility: 10 miles
  • Rain Today: 0.00 in
  •   

Regional Weather Roundup
for Boston, MA

        
000
ASUS41 KBOX 242310
RWRBOX

REGIONAL WEATHER ROUNDUP
NATIONAL WEATHER SERVICE BOSTON/NORTON MA
600 PM EST TUE JAN 24 2023

NOTE:  "FAIR" INDICATES FEW OR NO CLOUDS BELOW 12,000 FEET WITH NO 
SIGNIFICANT WEATHER AND/OR OBSTRUCTIONS TO VISIBILITY.

MAZALL-250000-
EASTERN MASSACHUSETTS
  
CITY           SKY/WX    TMP DP  RH WIND       PRES   REMARKS
BOSTON         PTCLDY    37  28  70 W16G23    30.10R WCI  28          
BEVERLY        CLEAR     34  27  75 W8        30.08R WCI  27          
LAWRENCE       CLEAR     36  27  69 W7        30.09R WCI  30          
BEDFORD        CLEAR     36  27  69 W8        30.09R WCI  30          
NORWOOD        CLEAR     36  27  69 W6        30.11R WCI  31          
MARSHFIELD     CLEAR     36  28  75 VRB6      30.10R WCI  31          
PLYMOUTH       CLEAR     37  26  64 W9        30.11R WCI  30          
TAUNTON          N/A    N/A N/A N/A MISG      30.12R                  
NEW BEDFORD    PTCLDY    38  27  64 W13       30.12R WCI  30          
$$

MAZALL-250000-
CAPE COD AND THE ISLANDS
  
CITY           SKY/WX    TMP DP  RH WIND       PRES   REMARKS
FALMOUTH       NOT AVBL                                               
HYANNIS        CLEAR     37  26  64 W12       30.11R WCI  29          
CHATHAM        CLEAR     38  25  59 W8        30.12R                  
PROVINCETOWN   CLEAR     38  29  70 W16G25    30.11R WCI  29          
NANTUCKET      CLOUDY    40  26  57 NW14G23   30.14R                  
MARTHAS VNYRD  CLOUDY    40  26  57 NW9G18    30.14R                  
$$
 
MAZALL-250000-
CENTRAL AND WESTERN MASSACHUSETTS
  
CITY           SKY/WX    TMP DP  RH WIND       PRES   REMARKS
WORCESTER      CLOUDY    33  26  75 W12       30.08R WCI  24          
FITCHBURG      PTCLDY    32  25  75 W5        30.10R WCI  27          
ORANGE         CLOUDY    33  27  78 W7        30.10R WCI  27          
SPRINGFIELD    PTCLDY    35  26  69 W10       30.11R WCI  27          
WESTFIELD      CLOUDY    36  26  67 SW12      30.13R WCI  28          
NORTH ADAMS    CLOUDY    34  26  72 W15G28    30.09R WCI  24          
PITTSFIELD     CLOUDY    31  25  78 W9        30.08R WCI  23          
$$
 
RIZALL-250000-
RHODE ISLAND
  
CITY           SKY/WX    TMP DP  RH WIND       PRES   REMARKS
PROVIDENCE     PTCLDY    37  25  61 W13       30.13R WCI  29          
NEWPORT        MOCLDY    37  25  61 W9G17     30.13R WCI  30          
BLOCK ISLAND   PTCLDY    38  25  59 W10G16    30.17R WCI  31          
SMITHFIELD     CLEAR     35  26  69 W12G20    30.10S WCI  27          
WESTERLY       CLEAR     38  26  62 W6        30.15R                  
$$
 
CTZALL-250000-
CONNECTICUT
  
CITY           SKY/WX    TMP DP  RH WIND       PRES   REMARKS
BRADLEY INTL   CLOUDY    38  26  62 W9        30.14R WCI  31          
HARTFORD       PTCLDY    39  25  57 W8G14     30.16R                  
BRIDGEPORT     CLOUDY    40  23  50 W9G22     30.18R                  
DANBURY        CLOUDY    39  23  52 W5        30.17R                  
GROTON         MOCLDY    40  26  57 W7        30.16R                  
NEW HAVEN      CLOUDY    42  26  53 NW13G18   30.17R                  
CHESTER        CLOUDY   N/A N/A N/A W6        30.15R                  
MERIDEN        CLOUDY    39  23  52 W8        30.16R                  
WILLIMANTIC    MOCLDY    36  26  67 CALM      30.14R                  
OXFORD         CLOUDY    35  25  66 W9        30.15R WCI  28          
$$

MEZ002-015-021-024-NHZ003-005-008-011-012-014-VTZ005-008-250000-
NORTHERN NEW ENGLAND
  
CITY           SKY/WX    TMP DP  RH WIND       PRES   REMARKS
PORTLAND ME    MOCLDY    36  26  67 W7        30.02R WCI  30          
BANGOR ME      CLOUDY    36  24  62 VRB6      29.94R WCI  31          
CONCORD NH     CLOUDY    35  26  69 W9        30.05R WCI  28          
MANCHESTER NH  PTCLDY    35  27  72 SW6       30.06R WCI  30          
NASHUA NH      PTCLDY    34  31  88 W3        30.09R                  
PORTSMOUTH NH  PTCLDY    35  27  72 W14       30.05R WCI  26          
JAFFREY NH     CLOUDY    33  27  78 SW3       30.06R                  
KEENE NH       LGT RAIN  34  28  79 SW7       30.08R WCI  28          
BURLINGTON VT  CLOUDY    35  27  72 W5        30.05R WCI  31          
MT. WASHINGTON SNOW      10  10 100 W81G98      N/A  VSB 0   WCI -21  
$$

NYZ052-076-250000-
EASTERN NEW YORK
  
CITY           SKY/WX    TMP DP  RH WIND       PRES   REMARKS
ALBANY         FLURRIES  35  27  72 SW5       30.14R WCI  31          
NEW YORK CITY  MOCLDY    41  23  48 W15G26    30.20R                  
$$
 
ANZALL-250000-
MARINE OBSERVATIONS
  
STATION/POSITION TIME  TEMP    WIND        PRES    VSBY  WAVE
                       AIR SEA DIR/SP/G                  HT/PER
                 (UTC) (F)     (DEG/KT/KT) (MB)    (MI)  (FT/S)
BOSTON BUOY      2240      42                N/A           3/ 4
BUZZARDS BAY     2200   40     300/ 22/ 25 1020.2R
NANTUCKET SOUND  2250   41 42  290/ 17/ 21 1020.2R         2/ 3
MASS BAY-STELLWA 2104   39 42  270/ 19/ 23 1015.8R  1 7/8  3/ 4
ISLE OF SHOALS   2200   37     270/ 25/ 27 1015.2R
S OF BLOCK IS    2226      44                N/A           6/ 7
$$

......................KEY.........................
  SKY/WX - SKY CONDITION/PRESENT WEATHER
  TMP    - TEMPERATURE IN FAHRENHEIT
  DWPT   - DEWPOINT IN FAHRENHEIT
  RH     - RELATIVE HUMIDITY IN PERCENT
  WIND   - DIRECTION AND SPEED IN MPH
  PRES   - MEAN SEA LEVEL PRESSURE IN INCHES OF HG
  WCI    - WIND CHILL INDEX
  VSB    - VISIBILITY IN MILES
  HX     - HEAT INDEX
  TC     - TEMPERATURE IN CELSIUS
  VRB    - VARIABLE WIND DIRECTION
  N/A    - NOT AVAILABLE
  
      

Other recent Regional Weather Roundups

Sat Jan 28, 9:10pm EST

Sat Jan 28, 8:10pm EST

Sat Jan 28, 7:10pm EST

Sat Jan 28, 6:10pm EST

Sat Jan 28, 5:10pm EST

Sat Jan 28, 4:10pm EST

Sat Jan 28, 3:10pm EST

Sat Jan 28, 2:10pm EST

Sat Jan 28, 1:10pm EST

Sat Jan 28, 12:10pm EST

Sat Jan 28, 11:10am EST

Sat Jan 28, 10:10am EST

Sat Jan 28, 9:10am EST

Sat Jan 28, 8:10am EST

Sat Jan 28, 7:10am EST

Sat Jan 28, 6:10am EST

Sat Jan 28, 5:10am EST

Sat Jan 28, 4:10am EST

Sat Jan 28, 3:10am EST

Sat Jan 28, 2:10am EST

Sat Jan 28, 1:10am EST

Sat Jan 28, 12:10am EST

Fri Jan 27, 11:10pm EST

Fri Jan 27, 10:10pm EST

Fri Jan 27, 9:10pm EST

Fri Jan 27, 8:10pm EST

Fri Jan 27, 7:10pm EST

Fri Jan 27, 6:10pm EST

Fri Jan 27, 5:10pm EST

Fri Jan 27, 4:10pm EST

Fri Jan 27, 3:10pm EST

Fri Jan 27, 2:10pm EST

Fri Jan 27, 1:10pm EST

Fri Jan 27, 12:10pm EST

Fri Jan 27, 11:10am EST

Fri Jan 27, 10:10am EST

Fri Jan 27, 9:10am EST

Fri Jan 27, 8:10am EST

Fri Jan 27, 7:10am EST

Fri Jan 27, 6:10am EST

Fri Jan 27, 5:10am EST

Fri Jan 27, 4:10am EST

Fri Jan 27, 3:10am EST

Fri Jan 27, 2:10am EST

Fri Jan 27, 1:10am EST

Fri Jan 27, 12:10am EST

Thu Jan 26, 11:10pm EST

Thu Jan 26, 10:10pm EST

Thu Jan 26, 9:10pm EST

Thu Jan 26, 8:10pm EST

Thu Jan 26, 7:10pm EST

Thu Jan 26, 6:10pm EST

Thu Jan 26, 5:10pm EST

Thu Jan 26, 4:10pm EST

Thu Jan 26, 3:10pm EST

Thu Jan 26, 2:10pm EST

Thu Jan 26, 1:10pm EST

Thu Jan 26, 12:10pm EST

Thu Jan 26, 11:10am EST

Thu Jan 26, 10:10am EST

Thu Jan 26, 9:10am EST

Thu Jan 26, 8:10am EST

Thu Jan 26, 7:10am EST

Thu Jan 26, 6:10am EST

Thu Jan 26, 5:10am EST

Thu Jan 26, 4:10am EST

Thu Jan 26, 3:10am EST

Thu Jan 26, 2:10am EST

Thu Jan 26, 1:10am EST

Thu Jan 26, 12:10am EST

Wed Jan 25, 11:10pm EST

Wed Jan 25, 10:10pm EST

Wed Jan 25, 9:10pm EST

Wed Jan 25, 8:10pm EST

Wed Jan 25, 7:10pm EST

Wed Jan 25, 6:10pm EST

Wed Jan 25, 5:10pm EST

Wed Jan 25, 4:10pm EST

Wed Jan 25, 3:10pm EST

Wed Jan 25, 2:10pm EST

Wed Jan 25, 1:10pm EST

Wed Jan 25, 12:10pm EST

Wed Jan 25, 11:10am EST

Wed Jan 25, 10:10am EST

Wed Jan 25, 9:10am EST

Wed Jan 25, 8:10am EST

Wed Jan 25, 7:10am EST

Wed Jan 25, 6:10am EST

Wed Jan 25, 5:10am EST

Wed Jan 25, 4:10am EST

Wed Jan 25, 3:10am EST

Wed Jan 25, 2:10am EST

Wed Jan 25, 1:10am EST

Wed Jan 25, 12:10am EST

Tue Jan 24, 11:10pm EST

Tue Jan 24, 10:10pm EST

Tue Jan 24, 9:10pm EST

Tue Jan 24, 8:10pm EST

Tue Jan 24, 7:10pm EST

Tue Jan 24, 5:10pm EST

Tue Jan 24, 4:10pm EST

Tue Jan 24, 3:10pm EST

Tue Jan 24, 2:10pm EST

Tue Jan 24, 1:10pm EST

Tue Jan 24, 12:10pm EST

Tue Jan 24, 11:10am EST

Tue Jan 24, 10:10am EST

Tue Jan 24, 9:10am EST

Tue Jan 24, 8:10am EST

Tue Jan 24, 7:10am EST

Tue Jan 24, 6:10am EST

Tue Jan 24, 5:10am EST

Tue Jan 24, 4:10am EST

Tue Jan 24, 3:10am EST

Tue Jan 24, 2:10am EST

Tue Jan 24, 1:10am EST

Tue Jan 24, 12:10am EST

Mon Jan 23, 11:10pm EST

Mon Jan 23, 10:10pm EST

Mon Jan 23, 9:10pm EST

Mon Jan 23, 8:10pm EST

Mon Jan 23, 7:10pm EST

Mon Jan 23, 6:10pm EST

Mon Jan 23, 5:10pm EST

Mon Jan 23, 4:10pm EST

Mon Jan 23, 3:10pm EST

Mon Jan 23, 2:10pm EST

Mon Jan 23, 1:10pm EST

Mon Jan 23, 12:10pm EST

Mon Jan 23, 11:10am EST

Mon Jan 23, 10:10am EST

Mon Jan 23, 9:10am EST

Mon Jan 23, 8:10am EST

Mon Jan 23, 7:10am EST

Mon Jan 23, 6:10am EST

Mon Jan 23, 5:10am EST

Mon Jan 23, 4:10am EST

Mon Jan 23, 3:10am EST

Mon Jan 23, 2:10am EST

Mon Jan 23, 1:10am EST

Mon Jan 23, 12:10am EST

Sun Jan 22, 11:10pm EST

Sun Jan 22, 10:10pm EST

Sun Jan 22, 9:10pm EST

Sun Jan 22, 8:10pm EST

Sun Jan 22, 7:10pm EST

Sun Jan 22, 6:10pm EST

Sun Jan 22, 5:10pm EST

Sun Jan 22, 4:10pm EST

Sun Jan 22, 3:10pm EST

Sun Jan 22, 2:10pm EST

Sun Jan 22, 1:10pm EST

Sun Jan 22, 12:10pm EST

Sun Jan 22, 11:10am EST

Sun Jan 22, 10:10am EST

Sun Jan 22, 9:10am EST

Sun Jan 22, 8:10am EST

Sun Jan 22, 7:10am EST

Sun Jan 22, 6:10am EST

Sun Jan 22, 5:10am EST

Sun Jan 22, 4:10am EST

Sun Jan 22, 3:10am EST

Sun Jan 22, 2:10am EST

Sun Jan 22, 1:10am EST

Sun Jan 22, 12:10am EST

Sat Jan 21, 11:10pm EST

Sat Jan 21, 10:10pm EST